Location: *
(46.3500°N, 10.9000°E)
Time: 22:37:19
(UTC+00:00)

Explorer 7 - Pass Details

Date: 21 April 2021
Orbit: 484 x 677 km, 50.3° (Epoch: 05 May)

Event Time Altitude Azimuth Distance (km) Brightness Sun altitude
Rises 23:55:39 0° 293° (WNW) 2,807 - -31.1°
Reaches altitude 10° 23:57:52 10° 292° (WNW) 1,937 - -31.0°
Maximum altitude 00:02:20 84° 207° (SSW) 632 - -30.8°
Drops below altitude 10° 00:07:03 10° 118° (ESE) 2,044 - -30.6°
Sets 00:09:27 0° 118° (ESE) 2,975 - -30.5°
